DMSP 5D-2 F13 DEB, 40676

Orbit data source: Space-Track

DMSP 5D-2 F13 DEB, 40676 is space debris in SSO originally from a launch on Fri, 24 Mar 1995 UTC launched from the Air Force Western Test Range (AFWTR). Debris objects in space refer to the collection of defunct objects orbiting the Earth. Examples of debris include non-operational satellites, rocket bodies, and fragments generated from explosions, collisions, or faulty payload assembly.

Loading next visibility...
Identifier
40676, 1995-015FQ
Orbit
SSO
Country
Flag of USUS
Related business
Manufacturer
Unknown
Mission
Spacecraft
Bus & Motor
Unknown
Mass
Unknown
Launch date (UTC)
1995-03-24 (31 years ago)
Launch vehicle
Unknown
Launch site
Air Force Western Test Range (AFWTR)
Object type
Payload
Rocket body
Debris
Shape & HBR
Unknown shape, 0.1 m
Radar Cross Section
Small (<0.1 m²)

Expand to show TLE details & history
Last TLE update: 2 days ago

TLE from 2 days ago
0 DMSP 5D-2 F13 DEB
1 40676U 95015FQ  26125.33946625  .00005624  00000-0  17706-2 0  9997
2 40676  98.6794 164.7853 0007495 134.8664 225.3134 14.40763354570233
Epoch: 2026-05-05T08:08Z
TLE epoch observation values (Epoch: 2026-05-05T08:08:49.884Z)
Latitude
0.00002°
Longitude
179.36172°
Altitude
762.684 km
Speed
7.471 km/s
True Right ascension
10h 59m 08s
True Declination
0° 00' 00"
Sunlit
Object was in full shadow at epoch
Visualization orbit readout
Latitude
Unknown
Longitude
Unknown
Altitude
Unknown
Speed
Unknown
Apparent Right ascension
Unknown
Apparent Declination
Unknown
Sunlit
N/A
Visualization observer readout
Local Sidereal Time
04:06:24
Azimuth
Unknown
Elevation
Unknown
Doppler factor
Unknown
Orbital elements
Apogee altitude
758.452 km
Perigee altitude
747.762 km
Semi-major axis
7,131.244 km
Eccentricity
0.00075
Inclination
98.6794°
RAAN
164.7853°
Arg. of periapsis
134.8664°
True anomaly
225.25238°
Mean anomaly
225.3134°
Eccentric anomaly
225.28289°
Mean motion
3.60409 °/min
Orbital period
99.89 mins
BSTAR
0.0017706

Documentation

Showing up to 5 results
|